www.pogodaiklimat.ru

Погода и климат >> Архив погоды >> Канада >> Eureka


ПОГОДА в Eureka

  • Прогноз погоды в Eureka
  • Монитор погоды в Eureka
  • Климат города

АРХИВ ПОГОДЫ в Eureka

Время (UTC), дата Ветер
(напр.,м/с)
 
Видим.   Явления Облачность Т
(С)
Тd
(С)
f
(%)
Тe
(С)
Тes
(С)
Комфортность P
(гПа)
Po
(гПа)
Тmin
(С)
Tmax
(С)
R
(мм)
R24
(мм)
S
(см)
18 18.05 ЮЗ 1 24 км ясно -11.3 -15.1 73 -14 -7 1010.0 1008.6 -11.2
21 18.05 З 2 24 км ясно -9.9 -13.2 77 -14 -9 1009.8 1008.4
00 19.05 Ю 1 24 км ясно -10.5 -14.0 75 -13 -10 1010.0 1008.6 -15.0 -9.8
03 19.05 С 1 24 км ясно -11.4 -14.0 81 -12 -10 1010.4 1009.0
06 19.05 В 1 24 км ясно -13.2 -15.8 81 -16 -15 1010.4 1009.0
09 19.05 С 1 24 км ясно -13.1 -15.4 83 -13 -12 1010.7 1009.3
12 19.05 ЮВ 1 24 км ясно -12.9 -16.3 76 -15 -12 1010.7 1009.3 6
15 19.05 ЮВ 3 24 км 1/0
[]
-11.4 -15.0 75 -17 -13 1010.7 1009.3
18 19.05 С 1 24 км 1/0
[Ac As]
-9.6 -13.8 71 -10 -3 1010.8 1009.4 -9.6
21 19.05 С 1 24 км ясно -9.3 -13.6 71 -10 -4 1011.6 1010.2
00 20.05 З 1 24 км ясно -9.4 -13.2 74 -12 -9 1012.6 1011.2 -13.9 -8.9
03 20.05 З 6 24 км ясно -11.9 -15.2 76 -21 -20 1013.4 1012.0
06 20.05 С 1 24 км 1/1 600 м
[Sc]
-12.4 -16.1 74 -13 -12 1015.0 1013.6 40
09 20.05 СЗ 2 24 км 1/1 600 м
[]
-12.9 -16.3 76 -17 -15 1016.9 1015.5
12 20.05 В 3 24 км ясно -12.8 -16.2 76 -18 -16 1018.4 1017.0 6
15 20.05 С 1 24 км ясно -12.1 -15.7 75 -12 -6 1019.3 1017.9
18 20.05 Ю 1 24 км ясно -10.7 -14.8 72 -13 -6 1020.3 1018.9 -10.5
21 20.05 ЮВ 3 24 км ясно -10.1 -14.2 72 -15 -11 1022.3 1020.9
00 21.05 ЮВ 3 24 км ясно -10.4 -14.0 75 -16 -14 1023.8 1022.4 -14.4 -9.9
03 21.05 ЮВ 3 24 км ясно -11.2 -14.2 78 -17 -16 1024.7 1023.3
06 21.05 ЮВ 4 24 км 8/1 200 м
[St Ac trans Ci]
-13.1 -15.6 81 -20 -20 1025.7 1024.3
09 21.05 ЮВ 4 24 км 8/8 200 м
[]
-14.2 -16.5 83 -21 -21 1026.6 1025.2
12 21.05 ЮВ 3 24 км 9/1 300 м
[Sc Ac und]
-13.0 -15.6 81 -19 -18 1027.4 1026.0 6
15 21.05 ЮВ 5 24 км 4/4 100 м
[]
-10.7 -13.7 79 -19 -17 1027.4 1026.0
18 21.05 ЮВ 4 24 км 5/1 1500 м
[Sc Ac As]
-9.2 -12.7 76 -16 -13 1027.0 1025.6 -9.2
21 21.05 Ю 5 24 км 10/0
[]
-8.0 -12.0 73 -15 -14 1026.4 1025.0
00 22.05 Ю 4 24 км 10/4 300 м
[Sc Ac As]
-7.4 -11.1 75 -14 -14 1025.3 1023.9 -14.4 -6.6
03 22.05 ЮВ 6 24 км 10/10 600 м
[]
-6.8 -10.0 78 -15 -15 1023.8 1022.4
06 22.05 ЮВ 5 24 км слабый снег 10/10 300 м
[Sc]
-5.4 -7.9 83 -13 -13 1022.2 1020.8 0.0 3
09 22.05 ЮВ 5 24 км 10/10 300 м
[]
-4.6 -6.4 87 -12 -12 1021.1 1019.7
12 22.05 ЮВ 6 24 км {снег} 10/10 200 м
[Sc]
-3.6 -6.1 83 -11 -11 1019.8 1018.4 0.0 6
15 22.05 ЮВ 6 24 км 10/10 300 м
[]
-2.2 -5.5 78 -9 -9 1017.8 1016.4
18 22.05 3200 м слабый снег {ливн. осадки} н/о -2.2 -3.8 89 -10 -10 1015.8 1014.4 -2.0 0.2 7
21 22.05 ЮВ 8 2000 м 8/8 100 м
[]
-2.0 -3.1 92 -10 -10 1014.1 1012.7
00 23.05 ЮВ 7 24 км слабый снег 10/10 200 м
[Sc]
-2.4 -3.8 90 -10 -10 1013.2 1011.8 -5.5 -1.8 1 8
03 23.05 ЮВ 4 9000 м 10/10 300 м
[]
-2.8 -4.5 88 -9 -9 1011.9 1010.5
06 23.05 ЮВ 6 3200 м слабый снег 10/3 1500 м
[Sc As trans]
-2.4 -3.5 92 -10 -9 1011.1 1009.7 1 161
09 23.05 ЮВ 3 4800 м 9/9 600 м
[]
-2.3 -3.7 90 -8 -7 1011.0 1009.6
12 23.05 ЮВ 5 4800 м слабый снег 10/10 600 м
[Sc]
-1.4 -3.3 87 -8 -8 1010.4 1009.0 0.4 10
15 23.05 ЮВ 4 4000 м 10/10 200 м
[]
-1.3 -3.0 88 -7 -7 1010.5 1009.1
18 23.05 2400 м слабый снег н/о -2.4 -4.1 88 -6 -5 1010.9 1009.5 -1.2 2 15
21 23.05 Ю 2 3200 м 9/9 100 м
[]
-2.0 -3.3 91 -5 -5 1011.5 1010.1
00 24.05 Ю 3 16 км слабый снег 10/9 50 м
[Sc Ac As]
-1.7 -2.8 92 -7 -7 1012.1 1010.7 -2.8 -1.2 5 20
03 24.05 Ю 2 1600 м 8/8 50 м
[]
-2.0 -2.7 95 -5 -5 1012.3 1010.9
06 24.05 С 1 3200 м слабый снег 10/10 300 м
[Sc]
-2.3 -3.0 95 -3 -3 1012.6 1011.2 1 21
09 24.05 З 2 3200 м 9/9 300 м
[]
-3.2 -4.0 94 -7 -7 1012.9 1011.5
12 24.05 З 2 3200 м слабый снег 10/10 300 м
[Sc]
-2.8 -3.6 94 -7 -7 1013.4 1012.0 1 22
15 24.05 З 5 4000 м 10/10 600 м
[]
-2.8 -4.2 90 -9 -9 1013.8 1012.4
18 24.05 З 4 11 км слабый снег 10/10 600 м
[Sc]
-2.2 -4.4 85 -8 -8 1014.5 1013.1 -1.8 0.0 22
21 24.05 С 8 24 км 10/10 600 м
[]
-2.0 -4.0 86 -10 -10 1015.4 1014.0
00 25.05 С 10 11 км слабый снег 10/10 600 м
[Sc]
-4.1 -6.4 84 -13 -13 1016.4 1015.0 -4.2 -1.4 0.0 17
03 25.05 С 7 16 км 10/10 600 м
[]
-4.1 -6.9 81 -12 -12 1018.0 1016.6
06 25.05 СЗ 3 24 км слабый ливневой снег 10/10 600 м
[Sc]
-5.0 -7.1 85 -10 -10 1019.3 1017.9 221
09 25.05 С 5 16 км 10/10 600 м
[]
-6.3 -8.6 84 -13 -13 1020.4 1019.0
12 25.05 С 3 24 км в посл. час ливневой снег 9/8 300 м
[Sc Ac As]
-5.2 -8.0 81 -11 -10 1021.6 1020.2 0.2 16
15 25.05 З 4 24 км 9/9 200 м
[]
-6.1 -8.7 82 -12 -12 1022.4 1021.0

 

Местоположение метеостанции Eureka (Канада): широта 79.98 долгота -85.93 высота над уровнем моря 10 м.

В архиве по умолчанию представлена погода в Eureka за последнюю неделю. Архивные данные за месяц целиком и за предыдущие месяцы, начиная с января 2011 года, Вы можете получить, выбрав интересующий диапазон дат из раскрывающегося списка и нажав кнопку "Ввод!".

Внимание! Время в таблицах - всемирное. Для получения местного времени необходимо прибавить поправку, которая в Eureka равна -6 ч.

Смотрите также архив погоды в соседних городах и на ближайших метеорологических станциях:

Погода в Eureka Climate (Канада) (1 км)
Погода в Chris Hadfield (Канада) (343 км)
Погода в Isachsen (aut) (Канада) (382 км)
Погода в Mittarfik Qaanaaq (Гренландия) (452 км)
Погода в Kitsissut (Гренландия) (471 км)
Погода в Alert Climate (Канада) (483 км)
Погода в Resolute Cs (Канада) (623 км)
Погода в Resolute Airport (Канада) (623 км)
Погода в Arctic Bay (Канада) (777 км)
Погода в Pond Inlet Airport (Канада) (834 км)

Пояснения к столбцам:

Ветер - указаны скорость ветра в м/с - средняя за 10 мин, порывы в срок и между сроками (в фигурных скобках) и направление, откуда дует ветер: С - северный, СВ - северо-восточный, В - восточный, ЮВ - юго-восточный, Ю - южный, ЮЗ - юго-западный, З - западный, СЗ - северо-западный.
Видимость - горизонтальная дальность видимости в метрах или километрах. При видимости от 1 до 10 км при отсутствии осадков обычно наблюдается дымка, при ухудшении видимости до 1 км и менее - туман. В сухую погоду видимость может ухудшаться дымом, пылью или мглою.
Явления - указаны атмосферные явления, наблюдавшиеся в срок или в последний час перед сроком; фигурными скобками обозначены явления, наблюдавшиеся между сроками (за 1-3 часа до срока); квадратными скобками обозначены град или гололедные отложения с указанием их диаметра в мм.
Облачность - указаны через наклонную черту общая и нижняя облачность в баллах и высота нижней границы облаков в метрах; квадратными скобками обозначены формы облаков: Ci - перистые, Cs - перисто-слоистые, Cc - перисто-кучевые, Ac - высококучевые, As - высокослоистые, Sc - слоисто-кучевые, Ns - слоисто-дождевые, Cu - кучевые, Cb - кучево-дождевые. Подробнее классификацию облаков см. в Атласе облаков (PDF).
T - Температура воздуха - температура, измеренная на высоте 2 м над землей.
Td - Температура точки росы - температура, при понижении до которой содержащийся в воздухе водяной пар достигнет насыщения.
f - Относительная влажность воздуха - влажноcть воздуха, измеренная на высоте 2 м над землей.
Te - Эффективная температура - температура, которую ощущает одетый по сезону человек в тени. Характеристика душности погоды. При расчете учитывается влияние влажности воздуха и скорости ветра на теплоощущения человека.
Tes - Эффективная температура на солнце - температура, которую ощущает человек, с поправкой на солнечный нагрев. Характеристика знойности погоды. Зависит от высоты солнца над горизонтом, облачности и скорости ветра. Ночью, в пасмурную погоду, а также при ветре 12 м/с и более поправка равна нулю.
P - Атмосферное давление - приведенное к уровню моря атмосферное давление.
Po - Атмосферное давление - измеренное на уровне метеостанции атмосферное давление.
Tmin - Минимальная температура - минимум температуры воздуха на высоте 2 м над землей.
Tmax - Максимальная температура - максимум температуры воздуха на высоте 2 м над землей.
R - Количество осадков - Количество выпавших осадков за период времени, мм. При наведении курсора мыши на число - период времени, за который выпало указанное количество осадков.
R24 - Количество осадков - Количество выпавших осадков за 24 часа, мм.
S - Снежный покров - Высота снежного покрова, см. При наведении курсора мыши на число - состояние снежного покрова и степень покрытия местности в баллах.